{"data":{"norad_id":45580,"intl_designator":"2020-025BB","name":"STARLINK-1333","alt_names":[],"object_type":"PAYLOAD","status":"ACTIVE","operator":null,"country":"US","launch_date":"2020-04-22","launch_site_code":"AFETR","launch_vehicle":null,"mission":null,"orbit_class":"UNKNOWN","rcs_meters":null,"size_class":null,"mass_kg":null,"dimensions":null,"purposes":["comms"],"wikipedia_slug":null,"has_3d_model":false,"image_url":null,"decayed_at":null,"tle_current":{"epoch":"2026-05-25T02:52:45.833952Z","epoch_age_seconds":60647,"freshness":"FRESH","line1":"1 45580U 20025BB  26145.11997493  .00040546  00000+0  12272-2 0  9996","line2":"2 45580  53.1556  82.1727 0003237  86.1309 274.0064 15.33810395337215","mean_motion":15.33810395,"eccentricity":0.0003237,"inclination_deg":53.1556,"raan_deg":82.1727,"arg_perigee_deg":86.1309,"mean_anomaly_deg":274.0064,"bstar":0.0012272,"rev_number":33721,"period_min":93.883833666416,"perigee_km":462.24128443733,"apogee_km":466.67117929564,"semimajor_km":6842.5932318665,"source":"CELESTRAK","updated_at":"2026-05-25T13:38:16.424758Z"}}}